{"data":{"norad_id":51108,"epoch":"2026-05-25T03:37:37.938720Z","epoch_age_seconds":65302,"freshness":"FRESH","line1":"1 51108U 22005E   26145.15113355 -.00000220  00000+0  42615-5 0  9993","line2":"2 51108  53.2139 305.8718 0001435  93.1521 266.9635 15.08832896240425","mean_motion":15.08832896,"eccentricity":0.0001435,"inclination_deg":53.2139,"raan_deg":305.8718,"arg_perigee_deg":93.1521,"mean_anomaly_deg":266.9635,"bstar":4.2615e-6,"rev_number":24042,"period_min":95.438004024006,"perigee_km":538.7723841835,"apogee_km":540.7578220871,"semimajor_km":6917.9021031353,"source":"CELESTRAK","updated_at":"2026-05-25T13:38:16.884932Z"}}